Zurück zum Katalog

STARLINK-37192

AktivKommunikationVLEO
NORAD 68342·PAYLOAD·🇺🇸 United States

Gestartet Mar 22, 2026 von Cape Canaveral Space Force Station

Loading…

Nächste Überflüge (nächste 24 Stunden)

TLE

AktuellSource: CelesTrak SupGP

Epoche: Sep 15, 2026, 03:37 UTC

1 68342C 26059X   26258.15118056 -.00027830  00000+0 -82231-3 0  2583
2 68342  53.1589 180.6538 0001301  88.3183 136.9073 15.34402031    16

Verfolge STARLINK-37192 in Echtzeit mit AllMySat

Download on the App Store